Simultaneous Nadir Overpasses (SNOs) Predictions

Prediction of SNOs between GOES-16 and NOAA-20 Satellite Orbit:

Table of predicted SNOs for the next 14.0 days since TLE Epoch: 1/3/2020
Index Date Time (GOES-16) GOES-16 Lat,Lon NOAA-20 Lat,Lon Distance(km) Time Diff (sec)
1 01/04/2020 18:35:21 -0.03, -75.20 -0.49, -77.22 230.36 80
2 01/05/2020 18:13:58 -0.02, -75.20 0.55, -72.69 286.14 80
3 01/07/2020 06:38:26 0.03, -75.21 0.66, -77.96 313.70 80
4 01/08/2020 06:17:03 0.03, -75.21 -0.38, -73.43 202.82 80
5 01/09/2020 18:41:40 -0.04, -75.22 -0.82, -78.74 401.16 80
6 01/10/2020 18:20:15 -0.04, -75.22 0.16, -74.20 115.56 80
7 01/12/2020 06:44:45 0.05, -75.23 0.98, -79.48 483.79 80
8 01/13/2020 06:23:20 0.04, -75.24 0.00, -74.94 33.14 80
9 01/15/2020 18:29:14 -0.04, -75.26 -0.16, -75.72 52.85 80
10 01/16/2020 18:07:51 -0.04, -75.27 0.89, -71.20 464.65 80




NCC Satellite Simultaneous Nadir Overpasses (SNOs) Prediction Service
